Orbital Elements at Epoch 2459200.5 (2020-Dec-17.0) TDB
Reference: JPL 38 (heliocentric ecliptic J2000)
Element | Value | Uncertainty (1-sigma) | Units |
e | .2010543837291691 | 3.9705e-08 | |
a | 3.004146376065255 | 1.4644e-08 | au |
q | 2.400149577793238 | 1.1734e-07 | au |
i | 12.52833576974375 | 3.3557e-06 | deg |
node | 151.3396853386285 | 2.0162e-05 | deg |
peri | 82.48097515336093 | 2.1408e-05 | deg |
M | 241.1829325645266 | 9.1015e-06 | deg |
tp | 2459828.206158902783 (2022-Sep-05.70615890) | 5.0372e-05 | TDB |
period | 1901.866643255799 5.21 | 1.3907e-05 3.808e-08 | d yr |
n | .1892877196603633 | 1.3841e-09 | deg/d |
Q | 3.608143174337272 | 1.7589e-08 | au |
|
| | Orbit Determination Parameters
Additional Information
|